sat.trackr.live / text

‹ back to catalog

STARLINK-32896

NORAD 62959 · 2025-029M

PAYLOAD ACTIVE UNKNOWN

§ Identity

Operator
Country
US
Launch date
2025-02-11
Launch site
AFWTR
Launch vehicle
Mass (kg)
RCS (m²)

Purposes: comms

External: N2YO · Heavens-Above · Gunter

§ Orbital elements

Epoch: 2026-09-21T12:43:40.763424Z

Period
93.85 min
Inclination
53.1588°
Eccentricity
0.0000975
Mean motion
15.34405680 rev/d
Perigee alt
462.0 km
Apogee alt
463.4 km
Semi-major
6,840.8 km
B*
6.1146e-4
RAAN
41.2375°
Arg perigee
75.6046°
Mean anomaly
284.5065°
Rev number
9,132

§ Raw data

STARLINK-328961 62959U 25029M   26264.53033291  .00020343  00000+0  61146-3 0  99972 62959  53.1588  41.2375 0000975  75.6046 284.5065 15.34405680 91325

JSON: /api/v1/satellites/62959 · /tle

For live sub-satellite position, see the globe view (requires WebGL).

§ Visibility from observer

Set your observer location to see the next 7 days of passes ≥ 10°. The values pass through the URL so the page stays shareable.

No JS? Fill the form by hand. The geolocation button needs JavaScript.